Regional Weather Roundup
Issued by NWS New Orleans/Baton Rouge, LA

Home | Current Version | Previous Version | Text Only | Print | Product List | Glossary On
Versions: 1 2 3 4 5 6 7 8 9 10 11 12 13 14 15 16 17 18 19 20 21 22 23 24 25 26 27
000
ASUS44 KLIX 160813
RWRLIX
NEW ORLEANS REGIONAL WEATHER ROUNDUP
NATIONAL WEATHER SERVICE NEW ORLEANS LA
200 AM CST SAT DEC 16 2017

NOTE: "FAIR" INDICATES FEW OR NO CLOUDS BELOW 12,000 FEET WITH NO
      SIGNIFICANT WEATHER AND/OR OBSTRUCTIONS TO VISIBILITY.
      SKY/WX - SKY CONDITION AND SIGNIFICANT WEATHER.
      TMP - AIR TEMPERATURE.     DP    - DEWPOINT TEMPERATURE.
      RH  - RELATIVE HUMIDITY.   PRES  - PRESSURE.
      HI  - HEAT INDEX.          WCI   - WIND CHILL INDEX.

*  THESE STATIONS ARE NOT NWS OR FAA STATIONS AND ARE NOT UNDER
   NWS QUALITY CONTROL.

LAZ038-040-048-061>063-065>067-069-160900-
SOUTHEAST LOUISIANA

CITY           SKY/WX    TMP DP  RH WIND       PRES   REMARKS
N.O. INTL ARPT PTCLDY    46  36  68 NE5       30.25F
N.O. LAKEFRONT PTCLDY    46  34  62 NE14      30.26R
N.O. DOWNTOWN*   N/A     45  34  65 NE3       30.27R
RESERVE*         N/A     44  32  63 E3        30.27S
SLIDELL        CLOUDY    43  34  70 N3        30.26R
BATON ROUGE    CLOUDY    41  35  79 CALM      30.26F
BOOTHVILLE     MOCLDY    50  41  71 NE9       30.25S
BELLE CHASSE   PTCLDY    42  37  82 NE6       30.26
BOGALUSA*      CLOUDY    40  35  82 MISG      30.27F
GALLIANO*      MOSUNNY   45  35  68 NE5       30.25S
NEW ROADS*     CLOUDY    38  36  92 CALM      30.27S
GONZALES*        N/A     42  35  74 NE3       30.25F
HAMMOND*       CLOUDY    41  34  75 N3        30.27S
HOUMA*         CLOUDY    42  37  80 NE3       30.25S
PORT FOURCHON* NOT AVBL

$$

MSZ070-080>082-160900-
SOUTHERN MISSISSIPPI

CITY           SKY/WX    TMP DP  RH WIND       PRES   REMARKS
MCCOMB         MOCLDY    33  30  88 CALM      30.25F
GULFPORT       MOCLDY    42  34  73 N5        30.26S
BILOXI         MOCLDY    41  33  72 NE6       30.25S
PASCAGOULA     CLOUDY    39  32  76 N5        30.26S

$$

COASTAL OBSERVATIONS
LAKE AND NEARSHORE STATIONS

STATION/POSITION TIME  TEMP    WIND        PRES    WAVE
                       AIR SEA DIR/SP/G            HT/PER
                 (UTC) (F)     (DEG/KT/KT) (MB)    (FT/S)
PASCAGOULA       0748   42      50/  6/  8 1024.1
WAVELAND YACHT   0736   42 51   50/  7/  9 1024.6
GRAND ISLE       0748   47 58   70/ 10/ 12 1024.2
SOUTHWEST PASS   0748   51 56   30/ 18/ 22 1023.6
NEW CANAL        0748   46 53   40/ 12/ 13 1024.3
SHELL BEACH      0736   45 54   40/ 12/ 13 1024.5

OFFSHORE STATIONS

STATION/POSITION TIME  TEMP    WIND        PRES    WAVE
                       AIR SEA DIR/SP/G            HT/PER
                 (UTC) (F)     (DEG/KT/KT) (MB)    (FT/S)
64 S DAUPHIN ISL 0750   56 71   40/ 12/ 16 1023.7    3/ 5

$$





USA.gov is the U.S. government's official web portal to all federal, state and local government web resources and services.